This is the latest recevied weather packets stored in our database for station/object KD4PMP. If no packets are shown the sender has not sent any weather packets the latest 10 day(s).
| Time | Temp. | Humidity | Pressure | Rain* | Wind** | Luminosity | Snow |
|---|---|---|---|---|---|---|---|
| 1777689603 | 12.22° C | 60% | 1016.6 hPa | 0 mm | - | - | - |
| 1777689003 | 12.22° C | 59% | 1016.5 hPa | 0 mm | - | - | - |
| 1777688403 | 12.22° C | 58% | 1016.2 hPa | 0 mm | - | - | - |
| 1777687802 | 12.22° C | 59% | 1016.2 hPa | 0 mm | - | - | - |
| 1777687202 | 12.22° C | 58% | 1016.1 hPa | 0 mm | - | - | - |
| 1777686602 | 12.78° C | 57% | 1016 hPa | 0 mm | - | - | - |
| 1777686001 | 12.78° C | 57% | 1015.7 hPa | 0 mm | - | - | - |
| 1777685401 | 12.78° C | 57% | 1015.7 hPa | 0 mm | - | - | - |
| 1777684801 | 13.33° C | 57% | 1015.6 hPa | 0 mm | - | - | - |
| 1777684201 | 13.89° C | 55% | 1015.5 hPa | 0 mm | - | - | - |
| 1777683600 | 13.89° C | 53% | 1015.5 hPa | 0 mm | - | - | - |
| 1777683000 | 14.44° C | 52% | 1015.1 hPa | 0 mm | - | - | - |
| 1777682400 | 15° C | 47% | 1015.1 hPa | 0 mm | - | - | - |
| 1777681799 | 15° C | 46% | 1014.7 hPa | 0 mm | - | - | - |
| 1777681199 | 15.56° C | 45% | 1014.7 hPa | 0 mm | - | - | - |
| 1777680599 | 15.56° C | 43% | 1014.3 hPa | 0 mm | - | - | - |
| 1777679999 | 16.11° C | 41% | 1014.1 hPa | 0 mm | - | - | - |
| 1777679398 | 16.67° C | 40% | 1013.7 hPa | 0 mm | - | - | - |
| 1777678798 | 16.67° C | 40% | 1013.5 hPa | 0 mm | - | - | - |
| 1777678228 | 16.67° C | 39% | 1013.4 hPa | 0 mm | - | - | - |
| 1777677597 | 16.67° C | 40% | 1013.4 hPa | 0 mm | - | - | - |
| 1777677027 | 16.67° C | 40% | 1013.5 hPa | 0 mm | - | - | - |
| 1777676427 | 17.22° C | 39% | 1013.5 hPa | 0 mm | - | - | - |
| 1777675797 | 17.78° C | 39% | 1013.4 hPa | 0 mm | - | - | - |
| 1777675196 | 17.78° C | 38% | 1013.2 hPa | 0 mm | - | - | - |
* Rain latest hour (hover to see other rain measurements)
** Current wind speed in m/s (hover to see current wind gust speed)